Terminal Aerodrome Forecast
Issued by NWS Bismarck, ND

Home | Current Version | Previous Version | Text Only | Print | Product List | Glossary On
Versions: 1 2 3 4 5 6 7 8 9 10 11 12 13 14 15 16 17
000
FTUS43 KBIS 060500
TAFBIS
TAF
KBIS 060532Z 0606/0706 27005KT P6SM BKN070 BKN100
     FM061700 22010KT P6SM BKN070 BKN100
     FM062300 27010KT P6SM BKN070 BKN100
     FM070200 30013KT P6SM SCT035=

USA.gov is the U.S. government's official web portal to all federal, state and local government web resources and services.